[[{"header":{"parameterUnit":"m.s-1","parameterCategory":1,"la1":30.2991,"la2":30.254,"lo1":-89.0895,"lo2":-89.0444,"dy":0.0017,"dx":0.0017,"nx":28,"ny":28,"refTime":"2025-12-28T03:00:00:Z","depth":0,"parameterNumber":2,"parameterNumberName":"U-component_of_WINDS"},"data":[0,0,0,0,0,0,0,0,0,0,0,0,0,0,0,0,0,0,0,0,0,0,0,0,0,0,0,0,0,0,0,0,0,0,0,0,0,0,0,0,0,0,0,0,0,0,0,0,0,0,0,0,0,0,0,0,0,0,1.6172,1.6172,0,1.6127,1.6127,1.6126,1.6057,1.6056,1.6054,1.6053,1.6007,1.6007,1.6007,0,0,0,0,0,0,0,0,0,0,0,0,0,1.6199,1.6199,1.6172,1.6172,1.6171,1.6127,1.6127,1.6126,1.6057,1.6056,1.6054,1.6053,1.6007,1.6007,1.6007,0,0,0,0,0,0,0,0,0,0,0,0,0,1.6174,1.6199,1.6172,1.6131,1.6127,1.6127,1.6127,1.6126,1.6057,1.6055,1.6054,1.6052,1.6007,1.6007,1.6007,1.6044,0,0,1.6007,1.6007,0,0,0,0,0,0,0,0,1.6176,1.6173,1.6138,1.6134,1.613,1.6096,1.6119,1.6098,1.6058,1.6084,1.6053,1.6051,1.6038,1.6035,1.6031,1.6041,1.6039,1.6007,1.6007,1.6007,1.6007,0,0,0,0,0,0,0,1.6177,1.6175,1.6154,1.6138,1.6133,1.6115,1.611,1.6115,1.6072,1.6082,1.6076,1.6072,1.6035,1.6031,1.6029,1.6039,1.6007,1.6007,1.6006,1.6006,1.6078,1.608,0,0,0,0,0,0,1.6185,1.6177,1.6156,1.6153,1.6149,1.6117,1.611,1.6109,1.6072,1.6064,1.6074,1.6069,1.6032,1.603,1.6028,1.6069,1.6007,1.6006,1.6006,1.6076,1.6078,1.6081,0,0,0,0,0,0,1.6186,1.6184,1.6158,1.6164,1.6159,1.6118,1.6117,1.6109,1.6104,1.6066,1.6058,1.6077,1.6031,1.6028,1.604,1.6066,1.6006,1.6006,1.6074,1.6077,1.6079,1.6152,0,0,0,0,0,0,1.6187,1.6185,1.6198,1.6164,1.6159,1.6172,1.6118,1.6109,1.6104,1.6098,1.6067,1.606,1.6029,1.6041,1.604,1.6065,1.6006,1.6071,1.6075,1.6079,1.6147,1.6157,1.6165,0,0,0,0,0,1.6188,1.622,1.6199,1.6197,1.6175,1.6173,1.617,1.6134,1.6107,1.612,1.6095,1.6061,1.6063,1.6043,1.6041,1.6067,1.6069,1.6074,1.6078,1.6143,1.6155,1.6165,0,0,0,0,0,0,1.6258,1.6215,1.6191,1.6213,1.6197,1.6161,1.6177,1.6147,1.6139,1.6133,1.6088,1.6082,1.6101,1.6084,1.6062,1.6101,1.6061,1.6066,1.6111,1.6122,1.6131,1.6135,1.6006,0,0,0,0,0,1.6276,1.6278,1.624,1.6263,1.6256,1.6218,1.6216,1.619,1.6171,1.6164,1.614,1.6124,1.6121,1.612,1.6116,1.6144,1.6137,1.6161,1.617,1.6178,1.6182,1.6197,1.6208,1.6095,1.6095,1.6095,0,0,1.6313,1.629,1.6294,1.6277,1.6261,1.6265,1.6213,1.6219,1.6221,1.6165,1.6176,1.6158,1.6137,1.6158,1.6166,1.6146,1.6212,1.6183,1.619,1.619,1.6203,1.6214,1.6223,1.6098,1.6097,1.6097,0,0,1.6383,1.6365,1.6382,1.6368,1.6346,1.632,1.6325,1.6293,1.6279,1.6289,1.6248,1.625,1.6245,1.6232,1.6225,1.6291,1.626,1.629,1.6339,1.6354,1.6363,1.6371,1.6395,1.6405,1.6295,1.6295,1.6295,0,1.6432,1.6435,1.6395,1.6404,1.6398,1.6347,1.6365,1.6353,1.6331,1.6328,1.6305,1.6299,1.6281,1.6299,1.6315,1.631,1.6315,1.6294,1.6365,1.6372,1.6379,1.6402,1.6411,1.6299,1.6299,1.6298,1.6298,0,1.6497,1.6501,1.6518,1.6497,1.6493,1.6506,1.6469,1.6469,1.6443,1.642,1.6432,1.6408,1.6398,1.64,1.6374,1.6415,1.6403,1.6373,1.6333,1.6394,1.6415,1.6424,1.6305,1.6303,1.6302,1.6301,0,0,1.661,1.6568,1.6575,1.6565,1.6537,1.6539,1.655,1.654,1.6542,1.6528,1.6537,1.6535,1.6507,1.6499,1.6471,1.6485,1.654,1.6453,1.6452,1.6471,1.6584,1.6608,1.6619,1.6518,1.652,1.6521,1.6586,0,1.6675,1.6692,1.6657,1.6682,1.6686,1.6637,1.6647,1.6631,1.661,1.661,1.6586,1.6586,1.6549,1.6544,1.6555,1.6531,1.6562,1.6525,1.6527,1.6527,1.6535,1.6629,1.6654,1.6717,1.6594,1.6596,1.6596,0,1.6753,1.6744,1.677,1.6741,1.6741,1.6751,1.6739,1.6739,1.672,1.6704,1.6696,1.6663,1.6673,1.6633,1.6646,1.6622,1.662,1.6608,1.661,1.661,1.6567,1.6633,1.6736,1.6747,1.6609,1.6608,1.6607,0,1.6835,1.6829,1.6844,1.6837,1.6803,1.6811,1.6797,1.6776,1.6773,1.6763,1.6761,1.6752,1.6748,1.6742,1.6708,1.6682,1.6725,1.6683,1.6713,1.6714,1.6725,1.6725,1.6831,1.6722,1.6722,1.6722,1.6722,0,1.6912,1.6931,1.688,1.689,1.6909,1.6868,1.6888,1.6869,1.6851,1.6856,1.6814,1.682,1.6774,1.6775,1.6749,1.6764,1.6762,1.675,1.6743,1.6754,1.6756,1.6754,1.6749,1.6724,1.6724,1.6723,1.6723,0,1.7007,1.6974,1.6987,1.6954,1.6946,1.6962,1.6933,1.6941,1.6917,1.6925,1.6924,1.6887,1.6886,1.6851,1.6843,1.6825,1.6852,1.6837,1.6859,1.6855,1.6887,1.6885,1.6996,1.7009,1.6892,1.6893,1.6894,0,1.7059,1.7072,1.704,1.7041,1.7029,1.703,1.7027,1.6987,1.6985,1.6965,1.6976,1.6971,1.6966,1.6967,1.6939,1.6933,1.6917,1.6957,1.6916,1.6928,1.692,1.692,1.6921,1.6966,1.6967,1.6969,1.697,0,1.7155,1.7138,1.7135,1.7126,1.7124,1.7115,1.7103,1.7106,1.7062,1.7063,1.7061,1.7057,1.7049,1.7046,1.7035,1.7021,1.6989,1.6982,1.6989,1.7002,1.7015,1.701,1.6884,1.698,1.6979,1.6978,1.6978,1.6977,1.7231,1.724,1.722,1.7218,1.7205,1.7196,1.7202,1.7179,1.7177,1.7167,1.7144,1.7147,1.7128,1.7109,1.7098,1.71,1.708,1.709,1.7093,1.7096,1.7103,1.7014,1.7098,1.7098,1.7097,1.7097,1.7097,0,1.7326,1.731,1.7309,1.7294,1.7293,1.7262,1.7248,1.7249,1.7253,1.7238,1.7233,1.7232,1.7229,1.7201,1.7195,1.7202,1.7187,1.7202,1.7202,1.7199,1.7121,1.7116,1.7214,1.7214,1.7214,1.7214,1.7214,1.7214,1.7375,1.739,1.7371,1.738,1.7364,1.7367,1.7361,1.7353,1.7341,1.7342,1.7339,1.7321,1.7301,1.7293,1.7289,1.7281,1.7281,1.7301,1.7288,1.7216,1.7204,1.7194,1.7189,1.7301,1.7301,1.7366,1.7367,1.7368]},{"header":{"parameterUnit":"m.s-1","parameterCategory":1,"la1":30.2991,"la2":30.254,"lo1":-89.0895,"lo2":-89.0444,"dy":0.0017,"dx":0.0017,"nx":28,"ny":28,"refTime":"2025-12-28T03:00:00:Z","depth":0,"parameterNumber":3,"parameterNumberName":"V-component_of_WINDS"},"data":[0,0,0,0,0,0,0,0,0,0,0,0,0,0,0,0,0,0,0,0,0,0,0,0,0,0,0,0,0,0,0,0,0,0,0,0,0,0,0,0,0,0,0,0,0,0,0,0,0,0,0,0,0,0,0,0,0,0,3.8784,3.8787,0,3.9059,3.9062,3.9065,3.9153,3.9151,3.915,3.9149,3.9431,3.9439,3.9448,0,0,0,0,0,0,0,0,0,0,0,0,0,3.8335,3.8343,3.8783,3.8787,3.879,3.9058,3.9062,3.9066,3.9153,3.9151,3.915,3.9148,3.9428,3.9438,3.9449,0,0,0,0,0,0,0,0,0,0,0,0,0,3.8562,3.8345,3.8783,3.8866,3.8876,3.9057,3.9062,3.9067,3.9153,3.9151,3.9149,3.9147,3.9425,3.9437,3.945,3.9569,0,0,3.949,3.9496,0,0,0,0,0,0,0,0,3.8549,3.8578,3.885,3.8861,3.8872,3.9069,3.9007,3.9235,3.9154,3.9048,3.9149,3.9147,3.9312,3.9334,3.939,3.9582,3.9594,3.9491,3.9499,3.9505,3.9509,0,0,0,0,0,0,0,3.8533,3.8567,3.8892,3.8854,3.8868,3.889,3.892,3.9051,3.9187,3.9057,3.9064,3.9095,3.9318,3.9377,3.9397,3.9598,3.9491,3.9503,3.9511,3.9516,3.9903,3.9905,0,0,0,0,0,0,3.8503,3.8553,3.8884,3.8901,3.8702,3.89,3.8933,3.9008,3.9186,3.9212,3.9097,3.9098,3.9356,3.9382,3.9408,3.956,3.9505,3.9517,3.9524,3.99,3.9903,3.9906,0,0,0,0,0,0,3.8493,3.8532,3.8873,3.8729,3.8774,3.8909,3.8993,3.9014,3.9074,3.9216,3.9241,3.9132,3.9356,3.9389,3.9528,3.9571,3.9523,3.9535,3.9897,3.9901,3.9905,3.9864,0,0,0,0,0,0,3.848,3.8527,3.8574,3.8729,3.8781,3.8988,3.8995,3.9021,3.9096,3.9101,3.9256,3.928,3.9357,3.9508,3.9541,3.9588,3.9545,3.9894,3.9899,3.9903,3.9862,3.9866,3.9869,0,0,0,0,0,3.8463,3.8551,3.8576,3.8615,3.8842,3.8991,3.9021,3.9107,3.9099,3.9147,3.9239,3.9275,3.956,3.9522,3.956,3.9611,3.9892,3.9898,3.9903,3.9861,3.9865,3.9869,0,0,0,0,0,0,3.8397,3.8573,3.8602,3.8743,3.8851,3.9005,3.9068,3.9108,3.9221,3.9221,3.9323,3.9357,3.9489,3.9564,3.9518,3.9736,3.9728,3.9741,3.9682,3.9688,3.9691,3.9672,3.9556,0,0,0,0,0,3.8399,3.8505,3.8653,3.8762,3.8815,3.8932,3.9,3.9057,3.9173,3.922,3.9321,3.9433,3.9548,3.9622,3.9735,3.9872,3.9908,3.9926,3.9929,3.9931,3.9942,4.0022,4.0032,3.9924,3.9924,3.9924,0,0,3.8404,3.8513,3.8574,3.8752,3.8843,3.8951,3.897,3.9083,3.9165,3.9237,3.9375,3.9453,3.9585,3.9723,3.979,3.979,3.998,3.9938,3.9939,3.995,4.0029,4.0039,4.0048,3.9928,3.9927,3.9926,0,0,3.8469,3.8561,3.8664,3.8754,3.8891,3.8968,3.8992,3.914,3.9195,3.9335,3.9392,3.949,3.9685,3.9777,3.9849,3.9948,3.9987,3.9982,4.0,4.0077,4.0085,4.0094,4.0131,4.0143,3.9992,3.9992,3.9992,0,3.8458,3.8623,3.8711,3.8822,3.89,3.8969,3.9074,3.9157,3.9324,3.9376,3.9373,3.9621,3.9714,3.9876,3.99,3.9955,3.9988,3.9966,4.0077,4.0086,4.0095,4.0132,4.0145,3.9991,3.9991,3.9991,3.9991,0,3.8604,3.8717,3.8783,3.8943,3.9027,3.9134,3.924,3.9314,3.9363,3.944,3.9582,3.9696,3.9835,3.9877,3.9926,4.0047,4.0043,4.0057,4.0052,4.0102,4.0139,4.0153,3.9989,3.9989,3.999,3.999,0,0,3.8637,3.8843,3.8866,3.894,3.9096,3.9185,3.9295,3.9431,3.9494,3.9606,3.9702,3.9865,3.988,3.9961,4.0021,4.0088,4.0161,4.0094,4.0099,4.0105,4.0303,4.0293,4.0307,4.0186,4.0189,4.0191,4.0292,0,3.8723,3.8924,3.9006,3.9169,3.9275,3.9342,3.9439,3.9545,3.9619,3.9721,3.9803,3.9919,3.9928,3.9978,4.0046,4.0137,4.0202,4.0131,4.0278,4.0282,4.0245,4.0326,4.0316,4.0406,4.0307,4.0309,4.0311,0,3.8852,3.8965,3.9138,3.9281,3.9329,3.9414,3.9545,3.9641,3.9762,3.9812,3.9903,3.9959,4.0078,4.0062,4.0228,4.0178,4.0242,4.0296,4.0301,4.0321,4.0301,4.035,4.0437,4.0451,4.0334,4.0332,4.0331,0,3.8861,3.9057,3.9186,3.9246,3.9416,3.9475,3.9548,3.9668,3.9744,3.9858,3.9909,4.0035,4.0105,4.0201,4.029,4.027,4.0448,4.0439,4.0494,4.0492,4.0531,4.0527,4.0631,4.0567,4.0567,4.0567,4.0567,0,3.8951,3.9055,3.9193,3.9272,3.939,3.9484,3.9598,3.9676,3.9782,3.9879,3.9943,4.0032,4.0143,4.0246,4.0316,4.0444,4.0474,4.0518,4.0536,4.0514,4.0509,4.056,4.0557,4.0571,4.057,4.0569,4.0569,0,3.8983,3.9079,3.9225,3.9373,3.9413,3.9494,3.9622,3.9702,3.9778,3.99,3.9934,4.0055,4.018,4.0277,4.0439,4.0486,4.0622,4.064,4.0581,4.0591,4.0641,4.0635,4.0783,4.0808,4.0725,4.0725,4.0726,0,3.9035,3.9117,3.9274,3.9343,3.9416,3.9526,3.9604,3.9699,3.9778,3.9922,3.9985,4.0114,4.0223,4.042,4.0523,4.0647,4.0671,4.0714,4.069,4.0666,4.0674,4.0669,4.0679,4.0717,4.0718,4.0718,4.0718,0,3.9118,3.9162,3.9272,3.9399,3.949,3.9594,3.97,3.9753,3.9867,3.9952,4.0081,4.0165,4.0331,4.0459,4.0594,4.067,4.0714,4.0724,4.0744,4.0724,4.0688,4.071,4.0592,4.0722,4.0721,4.0721,4.0721,4.0721,3.9164,3.924,3.9363,3.9483,3.9573,3.967,3.9753,3.984,3.9949,4.0092,4.014,4.0273,4.0393,4.0579,4.0656,4.0762,4.0764,4.0792,4.0799,4.0805,4.0804,4.0668,4.0786,4.0786,4.0786,4.0786,4.0786,0,3.9253,3.9335,3.9444,3.9591,3.9685,3.9717,3.9835,3.9913,4.0029,4.0137,4.0242,4.039,4.0515,4.0627,4.0757,4.082,4.0843,4.0851,4.0848,4.0866,4.0794,4.0765,4.083,4.083,4.083,4.083,4.083,4.083,3.931,3.9441,3.9499,3.9674,3.9756,3.9887,3.9952,4.0042,4.0129,4.0291,4.0395,4.0467,4.0577,4.0715,4.0831,4.0861,4.0907,4.091,4.0945,4.0876,4.087,4.0865,4.0839,4.0918,4.0918,4.1009,4.1009,4.101]}]]